[[{"header":{"parameterUnit":"m.s-1","parameterCategory":2,"la1":30.2991,"la2":30.254,"lo1":-89.0895,"lo2":-89.0444,"dy":0.0017,"dx":0.0017,"nx":28,"ny":28,"refTime":"2023-09-09T09:00:00:Z","depth":"0","parameterNumber":2,"parameterNumberName":"U-component_of_CURRENTS"},"data":[0,0,0,0,0,0,0,0,0,0,0,0,0,0,0,0,0,0,0,0,0,0,0,0,0,0,0,0,0,0,0,0,0,0,0,0,0,0,0,0,0,0,0,0,0,0,0,0,0,0,0,0,0,0,0,0,0,0,0.2399,0.2399,0,0.2378,0.2377,0.2377,0.2355,0.2355,0.2355,0.2355,0.2356,0.2356,0.2356,0,0,0,0,0,0,0,0,0,0,0,0,0,0.2414,0.2413,0.2399,0.2399,0.2399,0.2378,0.2377,0.2377,0.2355,0.2355,0.2355,0.2355,0.2356,0.2356,0.2356,0,0,0,0,0,0,0,0,0,0,0,0,0,0.2398,0.2413,0.2399,0.2388,0.2387,0.2378,0.2377,0.2376,0.2355,0.2355,0.2355,0.2355,0.2356,0.2356,0.2356,0.2356,0,0,0.2356,0.2356,0,0,0,0,0,0,0,0,0.2399,0.2397,0.239,0.2389,0.2388,0.2372,0.2383,0.2372,0.2355,0.2364,0.2355,0.2355,0.2365,0.2365,0.2356,0.2356,0.2356,0.2356,0.2356,0.2356,0.2356,0,0,0,0,0,0,0,0.24,0.2398,0.2387,0.239,0.2389,0.2382,0.2379,0.238,0.2363,0.2363,0.2362,0.2365,0.2365,0.2355,0.2356,0.2356,0.2356,0.2356,0.2356,0.2356,0.2377,0.2378,0,0,0,0,0,0,0.241,0.2399,0.2388,0.2387,0.2397,0.2382,0.2379,0.2374,0.2362,0.2361,0.2365,0.2364,0.2355,0.2355,0.2356,0.2388,0.2356,0.2356,0.2356,0.2377,0.2377,0.2378,0,0,0,0,0,0,0.241,0.2409,0.2389,0.2396,0.2393,0.2382,0.2377,0.2374,0.2373,0.2364,0.2363,0.2368,0.2355,0.2356,0.236,0.2387,0.2356,0.2356,0.2376,0.2377,0.2378,0.2432,0,0,0,0,0,0,0.241,0.2409,0.2411,0.2396,0.2393,0.2396,0.2377,0.2374,0.2375,0.2374,0.2366,0.2365,0.2355,0.236,0.236,0.2386,0.2356,0.2375,0.2376,0.2377,0.2429,0.2434,0.2438,0,0,0,0,0,0.2411,0.2417,0.2411,0.241,0.2395,0.2397,0.2395,0.2385,0.2376,0.2381,0.237,0.2366,0.2367,0.236,0.236,0.2387,0.2375,0.2376,0.2377,0.2427,0.2433,0.2438,0,0,0,0,0,0,0.2424,0.2416,0.2408,0.2411,0.241,0.2395,0.2399,0.2391,0.2385,0.2382,0.237,0.2369,0.2388,0.2374,0.2367,0.2395,0.2372,0.2373,0.241,0.2415,0.242,0.2426,0.2356,0,0,0,0,0,0.2428,0.2429,0.2423,0.2424,0.2426,0.2413,0.2413,0.2406,0.2398,0.2395,0.2388,0.2382,0.2391,0.2392,0.2394,0.2404,0.2408,0.2421,0.2426,0.243,0.2434,0.2481,0.2492,0.2382,0.2382,0.2382,0,0,0.2431,0.2429,0.2427,0.2427,0.2422,0.2427,0.2412,0.2416,0.242,0.2398,0.24,0.2403,0.2398,0.2414,0.2421,0.2406,0.2458,0.2431,0.2435,0.2437,0.2484,0.2495,0.2505,0.2383,0.2383,0.2383,0,0,0.2442,0.2438,0.2444,0.2444,0.2446,0.2442,0.2448,0.2439,0.2437,0.2444,0.2433,0.2449,0.2449,0.2453,0.2457,0.2487,0.2486,0.2488,0.2513,0.256,0.257,0.2578,0.2578,0.2587,0.2484,0.2485,0.2485,0,0.2446,0.2447,0.2447,0.2453,0.2454,0.2452,0.2458,0.246,0.2452,0.2461,0.2455,0.248,0.2472,0.2505,0.2507,0.2501,0.251,0.2494,0.2568,0.2577,0.2585,0.2583,0.2592,0.2487,0.2487,0.2487,0.2487,0,0.2453,0.2459,0.2464,0.2468,0.2475,0.2479,0.2484,0.2493,0.2497,0.2503,0.254,0.2539,0.2555,0.2559,0.2539,0.2591,0.2572,0.2576,0.2559,0.26,0.2594,0.2602,0.2491,0.249,0.2489,0.2489,0,0,0.244,0.2464,0.2463,0.2467,0.2479,0.2481,0.2505,0.2525,0.2545,0.2562,0.2596,0.2615,0.2625,0.2627,0.262,0.2649,0.2699,0.2632,0.2633,0.2638,0.2776,0.262,0.2614,0.2726,0.2728,0.273,0.2742,0,0.244,0.2454,0.2468,0.2479,0.2486,0.2499,0.2522,0.2544,0.2569,0.2602,0.2633,0.2666,0.2649,0.2664,0.2695,0.2701,0.2727,0.2693,0.2728,0.2728,0.2592,0.262,0.2481,0.2469,0.275,0.2751,0.2752,0,0.2434,0.2446,0.246,0.2486,0.249,0.25,0.2536,0.2559,0.2616,0.2641,0.2693,0.2717,0.2758,0.2745,0.2798,0.2779,0.278,0.2785,0.2786,0.2629,0.2588,0.2476,0.2473,0.242,0.2764,0.2763,0.2763,0,0.2413,0.2435,0.2446,0.245,0.2485,0.2497,0.2518,0.257,0.2599,0.2671,0.2705,0.2769,0.2793,0.2837,0.2829,0.2828,0.2877,0.2881,0.2744,0.2732,0.2611,0.2583,0.2566,0.2933,0.2933,0.2933,0.2932,0,0.2402,0.2406,0.2435,0.2437,0.2459,0.2485,0.2522,0.2558,0.2619,0.2657,0.2722,0.276,0.2822,0.285,0.2856,0.2803,0.2903,0.2746,0.2732,0.2619,0.2593,0.2537,0.2511,0.2933,0.2933,0.2933,0.2933,0,0.2382,0.2398,0.2414,0.2445,0.2453,0.247,0.2517,0.2543,0.2606,0.2658,0.2684,0.276,0.2778,0.2809,0.2854,0.2802,0.269,0.2755,0.2583,0.2545,0.2324,0.2305,0.2141,0.2089,0.2601,0.2597,0.2594,0,0.2373,0.238,0.2414,0.2421,0.2432,0.2459,0.2477,0.2535,0.256,0.2646,0.2662,0.2705,0.2714,0.2698,0.2622,0.2582,0.2553,0.2414,0.2378,0.2281,0.2254,0.2171,0.2137,0.2244,0.2238,0.2234,0.223,0,0.2362,0.2377,0.2393,0.2409,0.242,0.2437,0.2459,0.2477,0.254,0.2568,0.2588,0.2607,0.2559,0.2432,0.2355,0.2323,0.2254,0.231,0.229,0.2021,0.1855,0.1808,0.2247,0.2188,0.2192,0.2196,0.2198,0.2199,0.2354,0.2365,0.2385,0.2387,0.2398,0.2394,0.2367,0.2388,0.2404,0.2378,0.246,0.2393,0.229,0.2144,0.2093,0.1883,0.193,0.1808,0.1809,0.1747,0.1634,0.1933,0.1803,0.1804,0.1806,0.1807,0.1809,0,0.2325,0.2338,0.2353,0.2343,0.2305,0.2331,0.2326,0.2263,0.2214,0.2209,0.2174,0.202,0.1877,0.1783,0.1558,0.1431,0.1395,0.1381,0.1295,0.1306,0.1651,0.1574,0.129,0.129,0.129,0.129,0.129,0.129,0.2319,0.2306,0.2306,0.2235,0.221,0.2118,0.2082,0.2011,0.1973,0.181,0.1679,0.1637,0.1562,0.1344,0.1166,0.1134,0.1075,0.0925,0.1003,0.1311,0.1353,0.1394,0.132,0.0987,0.0986,0.0603,0.06,0.0598]},{"header":{"parameterUnit":"m.s-1","parameterCategory":2,"la1":30.2991,"la2":30.254,"lo1":-89.0895,"lo2":-89.0444,"dy":0.0017,"dx":0.0017,"nx":28,"ny":28,"refTime":"2023-09-09T09:00:00:Z","depth":"0","parameterNumber":3,"parameterNumberName":"V-component_of_CURRENTS"},"data":[0,0,0,0,0,0,0,0,0,0,0,0,0,0,0,0,0,0,0,0,0,0,0,0,0,0,0,0,0,0,0,0,0,0,0,0,0,0,0,0,0,0,0,0,0,0,0,0,0,0,0,0,0,0,0,0,0,0,0.0253,0.0253,0,0.0262,0.0262,0.0262,0.0259,0.0259,0.0259,0.0259,0.0238,0.0238,0.0237,0,0,0,0,0,0,0,0,0,0,0,0,0,0.0227,0.0228,0.0253,0.0253,0.0253,0.0262,0.0262,0.0262,0.0259,0.0259,0.0259,0.0259,0.0238,0.0238,0.0237,0,0,0,0,0,0,0,0,0,0,0,0,0,0.0238,0.0228,0.0253,0.0252,0.0252,0.0262,0.0262,0.0262,0.0259,0.0259,0.0259,0.0258,0.0238,0.0238,0.0237,0.0242,0,0,0.0236,0.0236,0,0,0,0,0,0,0,0,0.0238,0.0239,0.0252,0.0252,0.0252,0.0259,0.0245,0.0254,0.026,0.0257,0.0259,0.0258,0.0242,0.0241,0.0245,0.0241,0.024,0.0236,0.0235,0.0235,0.0235,0,0,0,0,0,0,0,0.0237,0.0239,0.0257,0.0252,0.0252,0.0249,0.025,0.0247,0.0252,0.0258,0.0257,0.0257,0.0242,0.0246,0.0244,0.024,0.0236,0.0235,0.0235,0.0235,0.023,0.023,0,0,0,0,0,0,0.0235,0.0238,0.0257,0.0257,0.0243,0.025,0.0251,0.0257,0.0252,0.0251,0.0258,0.0257,0.0247,0.0245,0.0244,0.0252,0.0235,0.0235,0.0235,0.023,0.023,0.023,0,0,0,0,0,0,0.0235,0.0237,0.0257,0.0247,0.0249,0.0251,0.0258,0.0258,0.0261,0.0253,0.0251,0.0261,0.0246,0.0244,0.0243,0.025,0.0235,0.0234,0.0229,0.023,0.023,0.0265,0,0,0,0,0,0,0.0234,0.0237,0.0241,0.0247,0.025,0.0265,0.0258,0.0258,0.0262,0.0261,0.0255,0.0253,0.0246,0.0244,0.0242,0.0249,0.0234,0.0229,0.0229,0.023,0.0264,0.0267,0.0269,0,0,0,0,0,0.0233,0.0242,0.0242,0.0244,0.0255,0.0266,0.0267,0.0267,0.0262,0.0268,0.0262,0.0253,0.0244,0.0244,0.0242,0.0249,0.0229,0.0229,0.023,0.0263,0.0266,0.0269,0,0,0,0,0,0,0.0231,0.0242,0.0242,0.0253,0.026,0.0265,0.027,0.0269,0.027,0.0268,0.0258,0.0255,0.0255,0.0247,0.0246,0.0247,0.0234,0.0234,0.0259,0.0263,0.0265,0.029,0.0233,0,0,0,0,0,0.0233,0.0244,0.0251,0.026,0.0264,0.0267,0.0271,0.0272,0.0273,0.0273,0.0267,0.0259,0.0256,0.0255,0.0248,0.0253,0.0255,0.0254,0.0257,0.0259,0.0277,0.0286,0.0292,0.0231,0.0231,0.0231,0,0,0.0234,0.0242,0.0247,0.026,0.0265,0.028,0.0269,0.0278,0.0292,0.027,0.0282,0.0267,0.0258,0.0261,0.0261,0.0256,0.0275,0.026,0.0262,0.0279,0.0287,0.0293,0.0299,0.0231,0.0231,0.0231,0,0,0.0246,0.025,0.0265,0.0274,0.0284,0.0288,0.0291,0.0297,0.0302,0.0311,0.0296,0.0291,0.0284,0.0283,0.0281,0.0294,0.0286,0.0283,0.0321,0.0329,0.0335,0.034,0.0344,0.0349,0.0288,0.0288,0.0288,0,0.0247,0.0271,0.027,0.0288,0.0301,0.0294,0.0316,0.0321,0.0325,0.0335,0.0319,0.0321,0.03,0.0321,0.0318,0.0303,0.0304,0.0311,0.0334,0.0339,0.0344,0.0347,0.0352,0.0289,0.0289,0.0289,0.0289,0,0.0275,0.0293,0.0303,0.0327,0.0337,0.0355,0.0363,0.0372,0.0371,0.0376,0.0392,0.0372,0.0379,0.0361,0.0342,0.0363,0.0352,0.0335,0.0331,0.0353,0.0353,0.0358,0.0292,0.0291,0.0291,0.029,0,0,0.0284,0.0318,0.0322,0.0347,0.0363,0.0381,0.0401,0.0427,0.0455,0.0446,0.0488,0.0461,0.0452,0.045,0.0426,0.0424,0.0438,0.0394,0.0393,0.0405,0.0457,0.0433,0.0435,0.0425,0.0426,0.0427,0.0443,0,0.031,0.0358,0.0365,0.0412,0.044,0.0444,0.0471,0.0489,0.0499,0.0533,0.0521,0.0544,0.0488,0.0497,0.0486,0.0456,0.0454,0.0436,0.0428,0.0428,0.041,0.0441,0.047,0.0486,0.0447,0.0448,0.0449,0,0.0341,0.0372,0.0423,0.0475,0.0488,0.0511,0.0563,0.0588,0.0619,0.0631,0.0646,0.0639,0.0644,0.0594,0.0568,0.056,0.0514,0.0483,0.0483,0.0457,0.0413,0.0458,0.0496,0.0479,0.0456,0.0455,0.0455,0,0.0368,0.0417,0.0464,0.048,0.0529,0.0556,0.0583,0.0616,0.0657,0.07,0.0738,0.0735,0.0749,0.0704,0.0628,0.0604,0.0599,0.0559,0.0498,0.0495,0.0519,0.0516,0.055,0.0546,0.0546,0.0546,0.0546,0,0.0405,0.0443,0.0482,0.0511,0.0576,0.0594,0.0666,0.0689,0.0744,0.0811,0.0796,0.0854,0.0776,0.0759,0.0679,0.0611,0.064,0.0522,0.0506,0.0529,0.0527,0.0511,0.048,0.0547,0.0547,0.0547,0.0547,0,0.0435,0.0457,0.0516,0.057,0.0592,0.064,0.072,0.0773,0.0814,0.0907,0.093,0.0947,0.0924,0.0839,0.0768,0.068,0.0603,0.0579,0.0607,0.0593,0.0506,0.0475,0.0489,0.0479,0.0524,0.0524,0.0524,0,0.0459,0.049,0.0558,0.0597,0.0626,0.0697,0.0751,0.0805,0.0867,0.0973,0.1026,0.1034,0.1063,0.095,0.0798,0.0672,0.0612,0.0596,0.0549,0.0524,0.0478,0.0465,0.0454,0.0593,0.0593,0.0593,0.0593,0,0.0505,0.0522,0.057,0.0643,0.0704,0.0782,0.0861,0.0921,0.1002,0.1087,0.1191,0.1229,0.1131,0.1028,0.0835,0.0736,0.0597,0.0594,0.0577,0.0547,0.0531,0.0505,0.0551,0.0595,0.0595,0.0595,0.0595,0.0595,0.0534,0.0571,0.0624,0.0696,0.0767,0.0855,0.0922,0.1017,0.1131,0.1253,0.1289,0.1359,0.1224,0.0975,0.0845,0.0627,0.0603,0.056,0.0529,0.0521,0.0504,0.0546,0.0559,0.0558,0.0558,0.0558,0.0557,0,0.0568,0.0608,0.0675,0.076,0.0834,0.0867,0.0988,0.1063,0.12,0.1313,0.14,0.1384,0.1232,0.1032,0.0745,0.0606,0.0559,0.053,0.0538,0.053,0.0587,0.0583,0.0595,0.0595,0.0595,0.0595,0.0595,0.0595,0.0588,0.0645,0.0675,0.0793,0.0857,0.0952,0.1018,0.1143,0.1244,0.137,0.1415,0.1435,0.1329,0.0924,0.067,0.0595,0.0523,0.049,0.0445,0.0501,0.0503,0.0504,0.0496,0.0488,0.0488,0.0432,0.0431,0.0431]}],[{"header":{"parameterUnit":"m.s-1","parameterCategory":2,"la1":30.2991,"la2":30.254,"lo1":-89.0895,"lo2":-89.0444,"dy":0.0017,"dx":0.0017,"nx":28,"ny":28,"refTime":"2023-09-09T09:00:00:Z","depth":"2","parameterNumber":2,"parameterNumberName":"U-component_of_CURRENTS"},"data":[0,0,0,0,0,0,0,0,0,0,0,0,0,0,0,0,0,0,0,0,0,0,0,0,0,0,0,0,0,0,0,0,0,0,0,0,0,0,0,0,0,0,0,0,0,0,0,0,0,0,0,0,0,0,0,0,0,0,0.175,0.175,0,0.1744,0.1744,0.1743,0.1761,0.1762,0.1763,0.1764,0.179,0.179,0.179,0,0,0,0,0,0,0,0,0,0,0,0,0,0.1771,0.177,0.175,0.175,0.1751,0.1744,0.1744,0.1743,0.1761,0.1762,0.1763,0.1764,0.179,0.179,0.179,0,0,0,0,0,0,0,0,0,0,0,0,0,0.176,0.177,0.175,0.1761,0.1762,0.1744,0.1744,0.1743,0.1761,0.1762,0.1764,0.1765,0.179,0.179,0.179,0.1763,0,0,0.1789,0.1789,0,0,0,0,0,0,0,0,0.1761,0.1759,0.1759,0.176,0.1762,0.1758,0.1761,0.1753,0.1761,0.1758,0.1764,0.1765,0.1783,0.1784,0.1775,0.1764,0.1765,0.1789,0.1789,0.1789,0.1789,0,0,0,0,0,0,0,0.1761,0.1759,0.1744,0.176,0.1761,0.1765,0.1764,0.1759,0.1762,0.1758,0.176,0.1765,0.1784,0.1775,0.1775,0.1766,0.1789,0.1789,0.1789,0.1789,0.1825,0.1826,0,0,0,0,0,0,0.1768,0.176,0.1745,0.1745,0.1768,0.1764,0.1763,0.1755,0.1761,0.1764,0.1764,0.1766,0.1774,0.1776,0.1777,0.1821,0.1789,0.1789,0.1789,0.1824,0.1825,0.1826,0,0,0,0,0,0,0.1768,0.1766,0.1745,0.1756,0.1754,0.1762,0.1753,0.1754,0.1762,0.1765,0.1768,0.1773,0.1775,0.1777,0.1796,0.182,0.1789,0.1789,0.1823,0.1824,0.1826,0.1863,0,0,0,0,0,0,0.1768,0.1765,0.1766,0.1756,0.1754,0.1749,0.1752,0.1753,0.1764,0.1766,0.1774,0.1777,0.1776,0.1797,0.1796,0.1819,0.1788,0.1821,0.1823,0.1825,0.186,0.1866,0.187,0,0,0,0,0,0.1769,0.1767,0.1765,0.1764,0.1752,0.175,0.1749,0.1757,0.1763,0.1768,0.1781,0.1777,0.1809,0.1797,0.1796,0.182,0.182,0.1823,0.1825,0.1858,0.1865,0.187,0,0,0,0,0,0,0.1774,0.1768,0.1767,0.1762,0.1763,0.1755,0.176,0.1763,0.1772,0.1784,0.1782,0.1786,0.1817,0.1809,0.1796,0.1838,0.1817,0.1819,0.1843,0.1848,0.1853,0.1866,0.1788,0,0,0,0,0,0.1775,0.1773,0.1768,0.1765,0.1766,0.1763,0.1765,0.1774,0.1779,0.1785,0.1793,0.1806,0.182,0.1828,0.1839,0.185,0.1856,0.1868,0.1873,0.1877,0.1888,0.1923,0.1933,0.1834,0.1834,0.1834,0,0,0.1776,0.1773,0.1773,0.1767,0.1766,0.177,0.1767,0.1779,0.1792,0.1786,0.1811,0.1824,0.1829,0.1854,0.1867,0.1853,0.1906,0.188,0.1884,0.1893,0.1927,0.1936,0.1945,0.1836,0.1835,0.1835,0,0,0.1776,0.1775,0.1772,0.1783,0.1792,0.1786,0.1793,0.1798,0.1813,0.1835,0.1842,0.1871,0.1881,0.1897,0.1903,0.1938,0.1934,0.1941,0.1971,0.2005,0.2013,0.2021,0.2029,0.2037,0.1939,0.1939,0.1939,0,0.1783,0.1772,0.1773,0.1783,0.1794,0.1795,0.1802,0.1813,0.183,0.1849,0.1855,0.1902,0.1906,0.1941,0.1957,0.195,0.196,0.1946,0.2012,0.2019,0.2026,0.2033,0.2042,0.1941,0.1941,0.1941,0.1941,0,0.1783,0.1784,0.1788,0.1794,0.1806,0.1816,0.1833,0.1857,0.1874,0.1889,0.1942,0.1957,0.1988,0.1993,0.1985,0.2037,0.2023,0.2017,0.1996,0.2039,0.2043,0.2051,0.1944,0.1944,0.1943,0.1942,0,0,0.177,0.1782,0.1787,0.1794,0.1818,0.1825,0.186,0.1882,0.1911,0.195,0.1993,0.2029,0.205,0.2059,0.2061,0.2087,0.2137,0.2074,0.2075,0.2081,0.22,0.2092,0.209,0.2144,0.2146,0.2148,0.2178,0,0.1766,0.1779,0.179,0.1808,0.1811,0.1845,0.1871,0.1909,0.1941,0.1986,0.203,0.2072,0.2069,0.2095,0.2124,0.2142,0.2162,0.2128,0.2159,0.216,0.2059,0.2098,0.191,0.1913,0.2185,0.2187,0.2188,0,0.176,0.1767,0.1784,0.181,0.1817,0.1836,0.189,0.1918,0.1985,0.2023,0.2086,0.2117,0.2179,0.2165,0.2231,0.2211,0.2211,0.2216,0.2217,0.2113,0.2068,0.1918,0.1918,0.2201,0.22,0.2199,0.2198,0,0.1739,0.1763,0.1773,0.179,0.1822,0.1849,0.187,0.1932,0.1967,0.2054,0.2097,0.2172,0.2214,0.2254,0.2267,0.2262,0.2317,0.2311,0.2211,0.2203,0.2046,0.202,0.235,0.235,0.235,0.235,0.235,0,0.1729,0.1736,0.1769,0.1778,0.1804,0.184,0.1887,0.1926,0.1994,0.2035,0.2115,0.2159,0.224,0.2276,0.2289,0.2269,0.2339,0.2225,0.2211,0.205,0.2026,0.2278,0.227,0.2351,0.2351,0.235,0.235,0,0.1706,0.1725,0.1732,0.177,0.1792,0.1814,0.1887,0.1914,0.199,0.2051,0.2085,0.2167,0.2215,0.226,0.231,0.2275,0.228,0.2246,0.2037,0.1996,0.214,0.2133,0.2163,0.216,0.2157,0.2155,0.2153,0,0.1689,0.1693,0.1729,0.174,0.1759,0.181,0.1837,0.1908,0.1935,0.2042,0.2051,0.2128,0.2142,0.2168,0.2138,0.2131,0.2205,0.1935,0.1891,0.2142,0.2125,0.2123,0.212,0.17,0.1694,0.169,0.1686,0,0.1656,0.1674,0.1688,0.1714,0.1736,0.1765,0.1806,0.1828,0.1905,0.1943,0.1966,0.1989,0.2007,0.1902,0.1886,0.1862,0.1928,0.184,0.2173,0.1766,0.1704,0.1688,0.17,0.1645,0.1649,0.1652,0.1655,0.1656,0.1639,0.1633,0.1658,0.1672,0.1698,0.1696,0.1692,0.1721,0.1737,0.175,0.1823,0.1781,0.1773,0.1652,0.1583,0.1532,0.1678,0.1597,0.1612,0.1632,0.1562,0.1498,0.1387,0.1389,0.1392,0.1394,0.1395,0,0.1603,0.1602,0.1613,0.1605,0.1595,0.1645,0.1646,0.1605,0.1568,0.1592,0.1583,0.1424,0.1328,0.1337,0.1183,0.1156,0.1162,0.1109,0.1106,0.1146,0.1181,0.1091,0.079,0.0788,0.0786,0.0785,0,0,0.1592,0.1565,0.155,0.1503,0.1511,0.1463,0.1448,0.1382,0.1364,0.129,0.1243,0.131,0.1312,0.106,0.0995,0.0869,0.1014,0.083,0.1314,0.1353,0.1387,0.1455,0.1358,0,0,0,0,0]},{"header":{"parameterUnit":"m.s-1","parameterCategory":2,"la1":30.2991,"la2":30.254,"lo1":-89.0895,"lo2":-89.0444,"dy":0.0017,"dx":0.0017,"nx":28,"ny":28,"refTime":"2023-09-09T09:00:00:Z","depth":"2","parameterNumber":3,"parameterNumberName":"V-component_of_CURRENTS"},"data":[0,0,0,0,0,0,0,0,0,0,0,0,0,0,0,0,0,0,0,0,0,0,0,0,0,0,0,0,0,0,0,0,0,0,0,0,0,0,0,0,0,0,0,0,0,0,0,0,0,0,0,0,0,0,0,0,0,0,0.0192,0.0192,0,0.0206,0.0206,0.0206,0.0202,0.0201,0.0201,0.0201,0.0192,0.0192,0.0192,0,0,0,0,0,0,0,0,0,0,0,0,0,0.0156,0.0156,0.0192,0.0192,0.0192,0.0206,0.0206,0.0206,0.0202,0.0201,0.0201,0.0201,0.0192,0.0192,0.0192,0,0,0,0,0,0,0,0,0,0,0,0,0,0.0171,0.0157,0.0192,0.0192,0.0192,0.0206,0.0206,0.0207,0.0202,0.0201,0.0201,0.02,0.0192,0.0192,0.0192,0.0202,0,0,0.0192,0.0193,0,0,0,0,0,0,0,0,0.017,0.0172,0.0191,0.0192,0.0192,0.0201,0.019,0.0204,0.0202,0.0198,0.0201,0.02,0.0193,0.0193,0.0198,0.0202,0.0202,0.0192,0.0193,0.0193,0.0193,0,0,0,0,0,0,0,0.0169,0.0172,0.0198,0.0192,0.0192,0.0189,0.019,0.0193,0.0198,0.0198,0.0198,0.02,0.0193,0.0198,0.0197,0.0202,0.0192,0.0193,0.0193,0.0193,0.0203,0.0203,0,0,0,0,0,0,0.0168,0.0171,0.0197,0.0198,0.0179,0.019,0.0192,0.0199,0.0198,0.0198,0.02,0.0199,0.0198,0.0197,0.0197,0.0209,0.0193,0.0193,0.0193,0.0203,0.0203,0.0204,0,0,0,0,0,0,0.0167,0.0171,0.0197,0.0184,0.0187,0.0191,0.0199,0.0199,0.0202,0.02,0.0199,0.0202,0.0197,0.0197,0.0201,0.0208,0.0193,0.0193,0.0203,0.0203,0.0203,0.0232,0,0,0,0,0,0,0.0166,0.017,0.0175,0.0184,0.0188,0.0207,0.02,0.02,0.0204,0.0203,0.0202,0.02,0.0197,0.0201,0.0201,0.0208,0.0193,0.0202,0.0203,0.0203,0.0231,0.0233,0.0235,0,0,0,0,0,0.0165,0.0175,0.0175,0.0178,0.0195,0.0208,0.021,0.021,0.0205,0.021,0.0208,0.02,0.0203,0.0201,0.0201,0.0208,0.0202,0.0203,0.0203,0.023,0.0233,0.0235,0,0,0,0,0,0,0.0161,0.0176,0.0176,0.019,0.0198,0.0207,0.0212,0.0212,0.0215,0.0213,0.0207,0.0206,0.0211,0.0206,0.0204,0.0212,0.02,0.0201,0.022,0.0223,0.0225,0.0238,0.0193,0,0,0,0,0,0.0163,0.0175,0.0186,0.0197,0.0201,0.0206,0.0211,0.0213,0.0217,0.0218,0.0215,0.0212,0.0214,0.0215,0.0214,0.0222,0.0217,0.0225,0.0227,0.0229,0.0239,0.0238,0.0241,0.0205,0.0205,0.0205,0,0,0.0163,0.0174,0.018,0.0197,0.0203,0.0219,0.0208,0.0219,0.0234,0.0217,0.023,0.0221,0.0218,0.0226,0.0227,0.0222,0.0235,0.023,0.0232,0.0241,0.0239,0.0242,0.0246,0.0205,0.0205,0.0205,0,0,0.0175,0.0181,0.0197,0.0207,0.022,0.0226,0.0229,0.0238,0.0242,0.0254,0.0244,0.0241,0.0244,0.0244,0.0245,0.026,0.0247,0.0254,0.0279,0.0277,0.028,0.0283,0.0275,0.0277,0.0256,0.0256,0.0256,0,0.0174,0.02,0.0202,0.0221,0.0234,0.0231,0.0253,0.0259,0.0267,0.0274,0.0261,0.0267,0.0256,0.0274,0.0274,0.0266,0.026,0.0269,0.0281,0.0284,0.0286,0.0277,0.0278,0.0257,0.0257,0.0257,0.0257,0,0.0201,0.022,0.023,0.0256,0.0268,0.0287,0.0297,0.0306,0.0306,0.031,0.0322,0.031,0.0315,0.0305,0.0294,0.0306,0.0294,0.0283,0.0276,0.0292,0.028,0.0282,0.0259,0.0259,0.0259,0.0258,0,0,0.0204,0.0243,0.0247,0.027,0.0291,0.0308,0.0329,0.0352,0.0373,0.0367,0.0394,0.0381,0.0369,0.0369,0.0353,0.0346,0.0345,0.0322,0.0321,0.0317,0.0337,0.0326,0.0325,0.0336,0.0336,0.0337,0.0321,0,0.0227,0.0273,0.0286,0.033,0.0356,0.0363,0.0388,0.0403,0.0411,0.0433,0.0421,0.0437,0.0397,0.0403,0.0389,0.0363,0.0351,0.035,0.032,0.0319,0.031,0.0328,0.0338,0.0324,0.0322,0.0322,0.0322,0,0.0254,0.0284,0.0331,0.038,0.0392,0.0415,0.0457,0.048,0.05,0.0507,0.0512,0.0503,0.0501,0.0464,0.0429,0.043,0.0386,0.0357,0.0356,0.0339,0.031,0.0309,0.0326,0.0324,0.0324,0.0324,0.0323,0,0.0269,0.0319,0.0362,0.0377,0.0425,0.0448,0.0474,0.0499,0.0533,0.0557,0.0583,0.0569,0.0577,0.0528,0.0461,0.0448,0.0418,0.0393,0.034,0.0338,0.0339,0.0337,0.0365,0.0365,0.0365,0.0365,0.0365,0,0.0298,0.0332,0.0373,0.0399,0.0455,0.0474,0.0534,0.0553,0.0595,0.0646,0.0625,0.066,0.0592,0.0565,0.0492,0.0426,0.0441,0.0353,0.0339,0.0348,0.0347,0.0341,0.0338,0.0364,0.0364,0.0364,0.0364,0,0.0314,0.0339,0.0392,0.0445,0.0466,0.0506,0.058,0.0623,0.0652,0.0723,0.0738,0.0734,0.0703,0.0626,0.0549,0.0473,0.0406,0.0372,0.0383,0.0371,0.0318,0.0317,0.0322,0.0321,0.0321,0.0321,0.032,0,0.033,0.0357,0.0425,0.0462,0.049,0.0552,0.0601,0.0649,0.0701,0.0772,0.0811,0.0801,0.0803,0.0685,0.0562,0.0446,0.0413,0.0359,0.0334,0.0331,0.0316,0.0316,0.0315,0.0342,0.0342,0.0342,0.0342,0,0.0359,0.0379,0.0424,0.0496,0.0553,0.0625,0.0698,0.075,0.0816,0.0872,0.093,0.0935,0.0839,0.0728,0.0565,0.0477,0.0381,0.0354,0.0361,0.035,0.0348,0.0334,0.0333,0.0341,0.0341,0.0341,0.0341,0.0341,0.0381,0.0413,0.0468,0.0538,0.0604,0.0689,0.0751,0.0829,0.0915,0.0994,0.0999,0.0999,0.0884,0.0677,0.0537,0.0381,0.0393,0.032,0.0321,0.0322,0.0326,0.0324,0.0312,0.0312,0.0312,0.0312,0.0312,0,0.0408,0.0446,0.0508,0.0591,0.0662,0.0698,0.0809,0.0869,0.0966,0.1024,0.1061,0.094,0.083,0.0685,0.0469,0.034,0.0322,0.0279,0.0291,0.0294,0.0295,0.0298,0.0277,0.0276,0.0275,0.0275,0,0,0.0426,0.048,0.0509,0.062,0.0683,0.0774,0.0838,0.0925,0.0985,0.1029,0.1024,0.1024,0.0873,0.0702,0.0536,0.0407,0.0371,0.037,0.0415,0.0453,0.0456,0.0339,0.0349,0,0,0,0,0]}],[{"header":{"parameterUnit":"m.s-1","parameterCategory":2,"la1":30.2991,"la2":30.254,"lo1":-89.0895,"lo2":-89.0444,"dy":0.0017,"dx":0.0017,"nx":28,"ny":28,"refTime":"2023-09-09T09:00:00:Z","depth":"4","parameterNumber":2,"parameterNumberName":"U-component_of_CURRENTS"},"data":[0,0,0,0,0,0,0,0,0,0,0,0,0,0,0,0,0,0,0,0,0,0,0,0,0,0,0,0,0,0,0,0,0,0,0,0,0,0,0,0,0,0,0,0,0,0,0,0,0,0,0,0,0,0,0,0,0,0,0.0943,0.0943,0,0.0983,0.0983,0.0984,0.1025,0.1025,0.1026,0.1026,0.1059,0.1059,0.1059,0,0,0,0,0,0,0,0,0,0,0,0,0,0.0919,0.0919,0.0943,0.0943,0.0943,0.0983,0.0983,0.0984,0.1025,0.1025,0.1026,0.1027,0.1058,0.1059,0.1059,0,0,0,0,0,0,0,0,0,0,0,0,0,0.0942,0.0919,0.0943,0.0968,0.097,0.0982,0.0983,0.0984,0.1025,0.1025,0.1026,0.1027,0.1058,0.1059,0.1059,0.1049,0,0,0.1061,0.1062,0,0,0,0,0,0,0,0,0.0941,0.0943,0.0964,0.0966,0.0969,0.0999,0.0987,0.1005,0.1025,0.1005,0.1026,0.1027,0.1037,0.1039,0.1047,0.1051,0.1052,0.1061,0.1062,0.1062,0.1062,0,0,0,0,0,0,0,0.0939,0.0942,0.0959,0.0964,0.0967,0.0983,0.0987,0.0991,0.1017,0.1007,0.101,0.1012,0.1038,0.1046,0.1048,0.1052,0.1061,0.1062,0.1062,0.1063,0.1122,0.1123,0,0,0,0,0,0,0.093,0.094,0.0958,0.0961,0.0955,0.0983,0.0987,0.0989,0.1017,0.1022,0.1012,0.1014,0.1044,0.1047,0.1049,0.1099,0.1062,0.1063,0.1063,0.1121,0.1122,0.1124,0,0,0,0,0,0,0.093,0.0931,0.0957,0.095,0.0955,0.0982,0.0984,0.099,0.1019,0.1021,0.1026,0.1037,0.1045,0.1048,0.1072,0.1098,0.1063,0.1064,0.112,0.1121,0.1123,0.1161,0,0,0,0,0,0,0.0929,0.0931,0.0942,0.095,0.0955,0.0976,0.0984,0.099,0.1017,0.1021,0.1044,0.1046,0.1046,0.1071,0.1072,0.1099,0.1064,0.1118,0.112,0.1122,0.1158,0.1163,0.1168,0,0,0,0,0,0.0928,0.0933,0.0943,0.0946,0.0965,0.0976,0.0981,0.1003,0.1018,0.1032,0.105,0.1047,0.1087,0.1072,0.1074,0.1101,0.1117,0.112,0.1122,0.1155,0.1162,0.1168,0,0,0,0,0,0,0.0929,0.0938,0.0949,0.0957,0.0973,0.0983,0.0999,0.1014,0.104,0.1051,0.1056,0.106,0.1095,0.109,0.1074,0.1126,0.1104,0.1107,0.1129,0.1135,0.114,0.1134,0.1065,0,0,0,0,0,0.0933,0.0943,0.0952,0.0964,0.097,0.099,0.1002,0.1019,0.1035,0.105,0.1064,0.1083,0.1103,0.1113,0.1128,0.1147,0.115,0.1169,0.1174,0.1178,0.1176,0.1205,0.1212,0.1133,0.1133,0.1133,0,0,0.0936,0.0944,0.095,0.0966,0.0979,0.0991,0.1,0.1023,0.1044,0.1047,0.1083,0.1102,0.1114,0.1144,0.1159,0.1145,0.1205,0.1182,0.1185,0.118,0.1208,0.1216,0.1223,0.1134,0.1134,0.1134,0,0,0.0937,0.0954,0.0959,0.0973,0.0996,0.1008,0.1019,0.1041,0.1065,0.1096,0.1111,0.1142,0.1168,0.1183,0.1193,0.1233,0.1234,0.1247,0.1265,0.1293,0.13,0.1305,0.1326,0.1333,0.1246,0.1246,0.1246,0,0.0945,0.095,0.0964,0.0973,0.0988,0.1016,0.1029,0.1053,0.1085,0.1106,0.1115,0.1175,0.1185,0.1224,0.1242,0.1245,0.126,0.1239,0.13,0.1305,0.131,0.133,0.1337,0.1248,0.1248,0.1248,0.1247,0,0.0942,0.0957,0.0961,0.0983,0.1002,0.1021,0.1048,0.1078,0.1112,0.1136,0.1192,0.1214,0.1251,0.1264,0.1265,0.1313,0.1313,0.1306,0.1281,0.1321,0.1339,0.1346,0.1251,0.125,0.125,0.1249,0,0,0.0936,0.0956,0.0962,0.0974,0.1013,0.1025,0.1064,0.1103,0.1135,0.118,0.1223,0.1267,0.1294,0.1307,0.1323,0.1343,0.1395,0.1343,0.1343,0.1358,0.1462,0.1351,0.1348,0.1405,0.1407,0.1408,0.1462,0,0.0936,0.095,0.0966,0.0991,0.1,0.104,0.107,0.1114,0.116,0.1208,0.1251,0.1302,0.1308,0.134,0.1364,0.1391,0.1415,0.1381,0.1425,0.1426,0.1318,0.1352,0.1412,0.1467,0.1469,0.147,0.1471,0,0.0926,0.094,0.0961,0.0994,0.1003,0.1031,0.1093,0.1125,0.1194,0.1234,0.1296,0.1335,0.1391,0.1386,0.1453,0.1436,0.1455,0.1465,0.1467,0.1351,0.1327,0.1419,0.1483,0.1483,0.1482,0.1481,0.148,0,0.0904,0.0936,0.0956,0.0969,0.1011,0.104,0.1075,0.114,0.1176,0.1264,0.1305,0.1376,0.1424,0.1462,0.1497,0.1487,0.1555,0.1542,0.1458,0.1451,0.1519,0.1512,0.1584,0.1583,0.1583,0.1583,0.1583,0,0.0885,0.0902,0.0953,0.096,0.0999,0.1035,0.1087,0.1133,0.1204,0.1248,0.1326,0.1367,0.1447,0.1494,0.1516,0.1507,0.1578,0.1462,0.1456,0.1534,0.1529,0.1524,0.1516,0.1585,0.1585,0.1584,0.1584,0,0.0846,0.0878,0.0901,0.0959,0.0985,0.1014,0.109,0.1119,0.1198,0.1261,0.1294,0.1382,0.1439,0.1499,0.1559,0.1518,0.1527,0.1508,0.1593,0.1592,0.1401,0.1395,0.1413,0.1409,0.1406,0.1404,0.1402,0,0.0823,0.0834,0.09,0.0921,0.0952,0.1006,0.1037,0.1115,0.1146,0.1253,0.1269,0.1359,0.141,0.1408,0.1471,0.1502,0.1484,0.1474,0.1424,0.139,0.1383,0.1382,0.138,0.1397,0.1396,0.1396,0.1395,0,0.0784,0.0818,0.0839,0.0884,0.0924,0.0955,0.1008,0.1023,0.1106,0.1193,0.1221,0.1251,0.1305,0.1342,0.1377,0.1394,0.1468,0.1442,0.1448,0.1401,0.1371,0.1367,0.1369,0.1384,0.1386,0.1387,0.1388,0,0.0765,0.0768,0.0802,0.0834,0.088,0.0885,0.0919,0.0949,0.0987,0.1104,0.1111,0.1206,0.1291,0.1286,0.1319,0.1325,0.13,0.1245,0.1261,0.1273,0.1199,0.1139,0.1076,0,0,0,0,0,0.0741,0.073,0.075,0.0768,0.0808,0.0832,0.0888,0.092,0.1007,0.0998,0.1052,0.1099,0.1134,0.1176,0.1156,0.1253,0.1305,0.1221,0.1249,0.1327,0.1339,0.1264,0,0,0,0,0,0,0.0717,0.0732,0.0724,0.0709,0.0712,0.0737,0.0768,0.0823,0.0818,0.0919,0.0947,0.1024,0.108,0.1146,0.1137,0.115,0.114,0.1282,0.1278,0.132,0.1331,0.1341,0.1267,0,0,0,0,0]},{"header":{"parameterUnit":"m.s-1","parameterCategory":2,"la1":30.2991,"la2":30.254,"lo1":-89.0895,"lo2":-89.0444,"dy":0.0017,"dx":0.0017,"nx":28,"ny":28,"refTime":"2023-09-09T09:00:00:Z","depth":"4","parameterNumber":3,"parameterNumberName":"V-component_of_CURRENTS"},"data":[0,0,0,0,0,0,0,0,0,0,0,0,0,0,0,0,0,0,0,0,0,0,0,0,0,0,0,0,0,0,0,0,0,0,0,0,0,0,0,0,0,0,0,0,0,0,0,0,0,0,0,0,0,0,0,0,0,0,0.0199,0.0199,0,0.0214,0.0214,0.0214,0.0218,0.0218,0.0218,0.0218,0.0229,0.023,0.023,0,0,0,0,0,0,0,0,0,0,0,0,0,0.0165,0.0166,0.0199,0.0199,0.0199,0.0214,0.0214,0.0214,0.0218,0.0218,0.0218,0.0218,0.0229,0.023,0.023,0,0,0,0,0,0,0,0,0,0,0,0,0,0.018,0.0166,0.0199,0.0203,0.0203,0.0214,0.0214,0.0214,0.0218,0.0218,0.0218,0.0218,0.0229,0.023,0.023,0.0236,0,0,0.0232,0.0232,0,0,0,0,0,0,0,0,0.0179,0.0181,0.0202,0.0203,0.0203,0.0214,0.0206,0.0221,0.0218,0.0212,0.0218,0.0217,0.0224,0.0225,0.0228,0.0237,0.0237,0.0232,0.0232,0.0233,0.0233,0,0,0,0,0,0,0,0.0178,0.018,0.0204,0.0202,0.0203,0.0201,0.0203,0.0209,0.0218,0.0213,0.0213,0.0215,0.0224,0.0227,0.0228,0.0237,0.0232,0.0232,0.0233,0.0233,0.026,0.026,0,0,0,0,0,0,0.0177,0.0179,0.0204,0.0205,0.0191,0.0202,0.0204,0.021,0.0218,0.022,0.0215,0.0215,0.0226,0.0228,0.0229,0.0249,0.0232,0.0233,0.0233,0.0259,0.026,0.026,0,0,0,0,0,0,0.0176,0.0179,0.0203,0.0192,0.0195,0.0203,0.021,0.0211,0.0217,0.022,0.0221,0.022,0.0226,0.0228,0.024,0.0249,0.0233,0.0234,0.0259,0.0259,0.026,0.0281,0,0,0,0,0,0,0.0175,0.0179,0.0185,0.0192,0.0196,0.0214,0.021,0.0211,0.0218,0.0218,0.0225,0.0226,0.0226,0.0239,0.024,0.0249,0.0234,0.0258,0.0259,0.026,0.028,0.0283,0.0285,0,0,0,0,0,0.0174,0.0183,0.0185,0.0188,0.0203,0.0214,0.0216,0.022,0.0218,0.0224,0.0229,0.0226,0.0244,0.024,0.0241,0.0251,0.0258,0.0259,0.026,0.0279,0.0282,0.0285,0,0,0,0,0,0,0.0171,0.0185,0.0187,0.02,0.0208,0.0215,0.0221,0.0222,0.0231,0.0233,0.0233,0.0234,0.0247,0.0246,0.0241,0.026,0.0249,0.0251,0.0264,0.0267,0.0269,0.0273,0.0235,0,0,0,0,0,0.0174,0.0185,0.0194,0.0205,0.021,0.0215,0.0221,0.0224,0.0232,0.0235,0.0239,0.0244,0.0252,0.0257,0.0262,0.0274,0.0261,0.028,0.0282,0.0284,0.0288,0.0274,0.0275,0.0263,0.0263,0.0263,0,0,0.0175,0.0184,0.019,0.0205,0.0212,0.0226,0.0219,0.023,0.0244,0.0236,0.0254,0.0252,0.0256,0.027,0.0275,0.0271,0.028,0.0285,0.0287,0.029,0.0275,0.0276,0.0277,0.0263,0.0263,0.0263,0,0,0.0185,0.0193,0.0206,0.0215,0.0228,0.0234,0.0238,0.0248,0.0255,0.0271,0.0268,0.0272,0.0285,0.0288,0.0292,0.031,0.0292,0.0309,0.0326,0.0312,0.0313,0.0313,0.0294,0.0293,0.0311,0.0311,0.0311,0,0.0185,0.0206,0.0211,0.0227,0.0239,0.024,0.0258,0.0266,0.0279,0.0284,0.0281,0.0295,0.0295,0.0312,0.0317,0.0316,0.03,0.0316,0.0314,0.0315,0.0315,0.0296,0.0294,0.0312,0.0312,0.0312,0.0312,0,0.0206,0.0224,0.0233,0.0257,0.0268,0.0284,0.0296,0.0307,0.0312,0.0316,0.0331,0.0331,0.0338,0.0337,0.0335,0.0339,0.0325,0.0318,0.0307,0.0317,0.0296,0.0294,0.0314,0.0313,0.0313,0.0313,0,0,0.0205,0.0241,0.0246,0.0264,0.0287,0.03,0.0323,0.0342,0.0356,0.0361,0.0377,0.0384,0.0375,0.0378,0.0372,0.036,0.0345,0.034,0.0339,0.0321,0.0307,0.0298,0.0295,0.0334,0.0334,0.0334,0.029,0,0.0221,0.0259,0.0273,0.0311,0.0331,0.0342,0.0365,0.038,0.0388,0.0402,0.0398,0.0411,0.0394,0.0399,0.0384,0.0358,0.0341,0.0358,0.0301,0.0299,0.0289,0.0293,0.0333,0.0288,0.0288,0.0287,0.0287,0,0.0239,0.0264,0.0302,0.0344,0.0353,0.0376,0.0409,0.043,0.0443,0.0448,0.0452,0.0445,0.044,0.0422,0.0379,0.0388,0.035,0.0324,0.0322,0.0305,0.0287,0.0277,0.0283,0.0283,0.0284,0.0284,0.0284,0,0.0242,0.0286,0.032,0.0334,0.0376,0.0398,0.0422,0.0442,0.0466,0.0478,0.049,0.0475,0.0476,0.043,0.038,0.0376,0.0324,0.0311,0.0266,0.0265,0.0276,0.0276,0.0275,0.0275,0.0275,0.0275,0.0276,0,0.0256,0.0285,0.0326,0.0346,0.039,0.0412,0.0457,0.0473,0.0501,0.0531,0.0516,0.0528,0.0476,0.0443,0.0388,0.0323,0.0328,0.027,0.0255,0.0285,0.0287,0.0274,0.0274,0.0274,0.0274,0.0274,0.0275,0,0.0258,0.0284,0.0327,0.0375,0.0395,0.0426,0.0489,0.0518,0.0538,0.0576,0.0583,0.0566,0.0524,0.0467,0.0393,0.0338,0.0275,0.0249,0.0287,0.0275,0.022,0.0222,0.0192,0.0191,0.0191,0.019,0.019,0,0.0263,0.0285,0.0346,0.0377,0.0404,0.0456,0.0495,0.0535,0.0567,0.0599,0.0615,0.059,0.057,0.0458,0.039,0.0286,0.0269,0.0224,0.0221,0.0224,0.0213,0.0216,0.0218,0.0189,0.0189,0.0189,0.0188,0,0.0272,0.0294,0.033,0.039,0.0439,0.0496,0.0552,0.0578,0.0623,0.064,0.064,0.0592,0.0544,0.0457,0.0381,0.0305,0.0247,0.0218,0.0218,0.0215,0.0221,0.021,0.0213,0.0187,0.0187,0.0187,0.0187,0,0.0279,0.0301,0.0349,0.0404,0.0464,0.052,0.0553,0.0594,0.0627,0.0658,0.0653,0.0607,0.058,0.0466,0.0396,0.0323,0.0297,0.0253,0.0251,0.0252,0.0282,0.03,0.0279,0,0,0,0,0,0.0284,0.0312,0.036,0.0422,0.0481,0.0518,0.0584,0.0613,0.0652,0.0654,0.0657,0.0615,0.0513,0.0468,0.0394,0.0377,0.028,0.0285,0.0228,0.0176,0.0178,0.0203,0,0,0,0,0,0,0.0289,0.0331,0.0355,0.0427,0.047,0.0537,0.0581,0.0611,0.0613,0.0637,0.0587,0.0573,0.0478,0.0556,0.0385,0.0365,0.0311,0.0245,0.0243,0.0175,0.0177,0.0179,0.0205,0,0,0,0,0]}]]